SCP
7 7 7 4 2 2 2 4 4 4 4 4 5 4 4 3 2 2 1 1 0 0 0 0 0 0 0 0 1 1 1 0 0 1 1 1 1 1
6 7 7 6 4 3 3 4 5 5 5 5 4 4 4 3 2 2 2 1 1 0 0 0 0 0 0 0 0 0 0 0 0 0 0 1 1 1
5 6 7 7 5 4 4 4 5 5 5 4 4 3 3 3 2 2 2 1 1 0 0 0 0 0 0 0 0 0 0 0 0 0 0 0 0 0
5 5 6 6 5 4 4 4 5 5 5 4 4 3 3 2 2 2 2 2 1 1 0 0 0 0 0 0 0 0 0 0 0 0 0 0 0 0
5 5 5 5 4 4 4 4 5 5 5 4 3 3 2 2 2 2 2 2 1 1 0 0 0 0 0 0 0 0 0 0 0 0 0 0 0 0
5 5 5 5 4 4 5 5 5 5 5 4 4 3 2 2 2 2 2 1 1 1 1 0 0 0 0 0 0 0 0 0 0 0 0 0 0 0
5 5 5 4 3 3 4 4 4 4 5 4 3 3 2 2 2 1 1 1 1 1 1 1 0 0 0 0 0 0 0 0 0 0 0 0 0 0
6 5 4 3 3 3 2 2 2 3 3 4 3 2 2 1 1 1 1 1 1 1 1 1 1 1 1 0 0 0 0 0 0 0 0 0 0 0
5 4 4 4 3 2 1 1 1 1 2 2 2 2 1 1 1 1 1 1 1 1 1 1 1 1 1 1 0 0 0 0 0 0 0 0 0 0
5 5 5 5 4 3 2 1 1 1 1 1 1 1 1 1 1 1 1 1 1 1 1 1 1 1 1 1 0 0 0 0 0 0 0 0 0 0
6 6 7 6 4 2 2 2 1 1 1 0 0 0 1 1 1 1 1 1 1 1 1 1 1 1 1 1 0 0 0 0 0 0 0 0 0 0
6 6 6 4 2 2 2 2 2 1 1 1 0 0 0 1 1 1 1 1 1 1 1 1 1 1 1 1 1 1 0 0 0 0 0 0 0 0
5 5 4 3 2 1 1 1 1 1 1 1 1 1 1 1 1 1 1 1 1 1 1 1 1 1 1 1 1 1 1 0 0 0 0 0 0 0
3 3 2 1 1 0 0 1 1 1 1 1 1 1 1 1 1 1 1 1 1 1 1 1 1 1 1 1 1 1 1 1 1 0 0 0 0 0
2 2 1 1 0 0 0 0 1 1 2 2 1 1 1 1 2 2 1 1 1 1 1 1 1 1 1 1 1 1 1 1 1 1 0 0 0 0
1 1 0 0 0 0 0 1 1 1 2 2 1 1 1 2 2 2 1 1 1 1 1 1 1 1 1 1 1 1 1 1 1 1 0 0 0 0
1 1 1 1 0 1 1 1 1 1 2 2 1 1 2 2 2 2 1 1 1 1 1 1 2 2 1 1 1 1 1 1 1 1 1 0 0 0
2 2 2 1 1 1 1 2 2 1 1 1 1 1 1 2 1 1 1 1 1 1 1 1 2 1 1 1 1 1 1 1 1 1 1 1 1 1
2 3 3 3 3 3 2 2 2 2 1 1 1 1 1 1 1 1 1 1 1 1 1 2 2 1 1 1 1 1 1 1 2 2 1 1 1 1
2 2 3 3 4 4 4 3 2 2 1 1 1 1 1 1 1 1 1 1 1 1 2 2 2 1 1 1 1 1 1 1 2 2 2 2 2 1
2 2 2 2 3 4 4 4 3 2 1 1 1 1 1 1 1 1 1 1 1 1 2 2 2 2 1 1 1 1 1 1 1 1 2 2 2 1
1 1 1 2 2 3 3 4 3 2 1 1 1 1 1 1 2 2 2 2 2 2 1 2 2 2 1 1 1 1 1 1 1 1 1 1 1 1
1 1 1 2 2 3 3 3 2 1 1 1 1 1 1 2 2 2 2 2 2 2 1 1 2 2 2 1 1 1 1 1 1 1 1 0 0 0
Wind_Speed
2 3 3 2 2 2 2 1 2 2 2 1 1 1 1 2 4 3 3 6 6 6 6 5 5 4 4 3 3 3 3 3 3 4 4 4 5 5
2 2 2 3 2 2 2 2 2 2 2 1 1 1 1 1 4 2 2 6 7 8 7 7 6 5 5 4 3 3 3 3 3 4 4 5 5 6
2 2 2 3 3 2 2 2 2 2 2 2 2 1 1 1 1 2 3 4 5 8 9 8 8 7 6 5 4 4 3 3 4 4 5 6 6 6
2 2 2 2 3 3 2 2 2 2 2 3 2 2 2 2 2 2 2 3 3 8 10 9 8 8 7 7 6 5 5 5 5 4 5 5 6 6
2 2 2 2 2 2 2 3 2 3 2 2 3 1 1 1 1 2 3 2 3 4 8 8 8 8 8 8 7 7 6 6 6 5 5 5 5 6
2 3 3 3 3 2 2 3 3 3 3 3 2 2 2 1 1 2 2 1 2 2 3 5 7 9 8 8 8 7 7 7 7 6 6 6 6 6
3 3 3 2 2 2 2 2 2 2 2 2 3 2 2 1 1 1 1 1 1 1 1 2 3 4 5 7 8 8 8 8 7 7 7 7 7 7
3 3 3 2 3 3 3 3 3 3 2 2 2 2 2 1 1 2 1 1 2 1 0 2 2 2 3 4 8 9 9 9 8 8 8 7 8 8
3 3 3 2 1 2 3 4 3 4 4 3 3 3 2 2 2 3 2 2 3 2 1 2 2 2 2 3 8 10 10 10 9 9 9 8 8 8
3 3 3 2 3 2 2 2 3 3 3 3 2 3 3 2 3 3 3 3 2 2 1 2 2 2 2 1 6 10 10 10 9 9 8 8 8 7
3 3 3 3 2 2 2 3 3 3 3 3 3 4 4 5 3 1 2 2 2 2 1 2 2 2 2 2 3 7 9 9 9 9 9 9 8 7
3 3 3 3 2 2 2 3 3 3 2 2 2 4 4 5 5 4 3 2 2 2 2 1 2 1 2 1 1 2 4 6 8 8 9 9 8 5
3 2 2 3 3 4 4 3 5 4 3 3 3 3 3 3 3 4 4 3 3 3 2 2 2 2 2 2 2 2 2 2 3 4 6 8 8 6
2 1 1 2 3 5 4 4 5 4 3 4 4 3 3 3 3 3 4 4 4 5 4 3 2 2 2 3 2 2 2 2 2 3 3 4 6 7
2 2 3 4 5 4 6 6 4 3 3 4 4 4 3 3 2 3 3 4 4 5 5 4 3 3 2 3 3 2 2 3 3 3 2 3 3 3
2 2 3 5 5 4 3 4 4 4 4 4 3 3 2 2 2 2 2 2 2 3 3 4 4 3 3 3 3 3 3 2 2 2 2 2 2 3
2 2 2 2 2 2 3 3 3 4 4 3 3 3 3 2 2 2 2 2 2 3 3 2 2 2 3 2 3 3 2 2 2 2 2 2 3 3
2 2 3 3 3 3 3 3 3 3 3 3 3 3 3 2 3 2 2 2 3 2 2 2 1 1 2 2 3 2 2 2 2 2 2 2 3 2
2 3 3 4 4 3 3 3 3 3 3 3 3 3 2 2 2 2 2 2 2 2 2 2 2 2 3 4 3 2 2 3 2 2 2 2 3 3
4 4 4 4 4 3 3 3 3 2 2 2 2 2 2 2 3 3 3 2 2 3 2 2 2 3 4 4 3 3 4 3 2 3 2 2 2 2
4 4 3 3 3 3 3 3 3 2 2 2 2 2 2 2 3 3 3 3 3 3 3 3 3 4 3 2 2 2 2 2 2 2 2 2 3 3
3 3 3 3 3 3 3 3 3 3 2 2 2 2 2 2 3 4 3 2 2 2 3 2 2 2 2 2 3 3 2 1 2 2 3 4 3 3
2 3 3 3 3 3 3 4 4 3 2 3 3 3 2 2 3 3 3 2 2 2 2 1 1 2 2 2 2 2 2 2 1 2 3 5 6 8
Wind_Direction
285 289 288 290 295 295 296 269 264 284 276 232 230 213 199 133 162 179 170 183 190 198 198 196 193 198 208 211 209 208 211 222 230 235 236 239 237 237
263 280 285 287 287 292 294 299 284 266 287 291 259 226 201 167 172 179 172 174 197 198 194 194 195 196 198 199 199 199 205 216 224 233 236 240 244 242
271 276 280 291 302 297 301 301 299 288 271 286 279 259 228 238 162 183 182 191 202 201 198 197 196 196 196 195 197 199 204 213 225 233 237 240 242 243
264 275 283 284 294 307 309 300 295 286 255 267 274 261 248 220 200 208 219 214 199 194 198 199 195 195 197 198 199 204 209 215 225 231 239 242 244 245
261 262 269 278 284 293 301 302 300 297 265 262 267 259 261 247 229 236 240 237 243 195 194 197 198 198 200 203 205 208 213 219 224 229 236 242 247 249
255 256 260 261 262 273 282 286 292 300 294 276 268 260 253 242 225 239 266 248 256 245 202 192 198 201 205 207 209 211 214 219 224 229 233 240 246 249
251 247 249 254 267 265 278 296 301 294 293 288 282 277 271 268 257 266 275 281 263 248 221 212 193 200 207 213 215 214 213 217 223 229 231 235 242 245
257 253 247 236 223 217 232 252 265 272 287 290 287 279 289 293 293 287 286 294 282 271 255 260 208 211 209 201 203 203 207 213 218 225 229 234 239 241
256 257 265 253 227 233 230 238 255 263 256 260 276 284 283 286 288 287 281 274 267 268 279 269 257 247 235 218 191 196 203 211 218 224 228 232 236 237
250 239 243 251 259 270 262 252 254 264 253 238 237 256 266 274 261 256 254 263 266 267 240 251 260 261 264 222 201 201 204 210 219 225 228 230 232 235
252 250 239 238 247 261 256 255 258 262 272 258 231 237 252 264 259 255 258 254 270 274 253 234 255 267 261 234 216 208 210 216 222 227 230 231 231 234
247 242 235 224 223 217 239 254 260 265 269 279 266 254 248 249 238 223 231 239 255 263 250 234 252 272 284 268 223 204 210 223 226 230 232 233 232 229
259 252 233 205 224 232 240 245 249 261 268 261 257 244 238 239 228 217 218 225 233 246 247 238 248 251 242 262 267 233 211 210 218 233 235 236 230 216
275 277 244 225 253 260 256 254 258 261 257 259 255 251 245 239 235 225 221 226 228 231 238 243 243 237 246 255 253 234 223 220 220 221 218 218 225 225
286 294 280 256 255 250 242 244 248 251 249 254 255 253 250 244 237 237 234 232 238 240 238 236 235 237 237 251 255 239 247 235 220 218 214 210 210 205
288 294 279 261 258 254 250 243 236 243 246 248 252 254 251 246 239 238 239 240 243 249 242 235 230 230 242 245 247 254 248 238 228 226 226 230 227 215
310 287 277 271 268 267 256 244 239 241 246 250 254 252 249 246 247 245 242 249 256 257 256 248 241 234 236 241 244 245 248 244 241 235 231 247 243 230
241 257 270 270 264 266 268 261 249 247 248 246 248 247 241 242 251 243 231 234 242 253 261 261 255 268 275 263 237 246 254 260 260 248 243 251 261 254
234 254 262 263 267 268 271 272 264 255 253 256 254 256 253 249 252 250 245 242 248 249 246 240 241 245 260 269 266 233 247 261 261 258 253 251 259 255
247 254 262 266 267 271 275 280 280 274 265 268 273 278 275 267 267 262 254 245 250 258 255 235 235 242 248 257 264 268 251 250 244 253 264 273 274 271
258 262 269 274 281 284 281 284 285 283 276 272 268 263 269 271 270 267 265 259 255 256 254 245 244 246 251 262 265 268 284 281 262 241 252 266 271 263
280 280 283 289 294 295 295 289 282 284 285 280 277 263 253 256 264 267 264 254 249 259 265 263 250 249 244 249 262 269 277 294 322 305 275 254 250 251
300 301 298 293 296 300 306 310 307 300 292 287 283 276 268 264 268 268 263 266 265 273 281 295 304 289 280 268 265 273 279 282 288 302 299 280 254 245